Location: Chippewa Lake
(41.0698°N, 81.9010°W)
Time: 21:53:19
(UTC+00:00)

Cosmos 1975 Rocket - Pass Details

Date: 09 May 2021
Orbit: 604 x 633 km, 82.5° (Epoch: 17 June)

Event Time Altitude Azimuth Distance (km) Brightness Sun altitude
Exits shadow 07:19:38 45° 102° (ESE) 843 3.8 -25.6°
Maximum altitude 07:19:51 45° 93° (E) 837 3.8 -25.6°
Drops below altitude 10° 07:24:01 10° 21° (NNE) 1,973 6.6 -25.2°
Sets 07:26:18 0° 15° (NNE) 2,878 7.7 -25.0°
